LILACSAT-2

Last updated on Fri Feb 06 2026 00:03:13 GMT+0000 (Coordinated Universal Time)

1 40908U 15049K 26036.76329867 .00032742 00000+0 65198-3 0 9994 2 40908 97.4853 68.9016 0008048 23.8104 336.3517 15.46815252575405
UTC large
Height (km)
Speed (km/s)
/
Latitude / Longitude
Inclination (degrees)
Orbital Period (minutes)
Azimuth
Elevation
Range (km)
Doppler Factor

Next 0 passes for location: London (51.5072 / 0.1276)

Sorry there are no passes over London.